Weather History for KOJA - November, 2013

Change the Weather History Date:

Wednesday, November 20, 2013

  Actual Average (KJWG) Record (KJWG)
Temperature  
Mean Temperature 58 °F -  
Max Temperature 64 °F 57 °F 79 °F (1989)
Min Temperature 51 °F 33 °F 21 °F (1993)
Degree Days  
Heating Degree Days 8    
Growing Degree Days 8 (Base 50)    
Moisture  
Dew Point 46 °F    
Average Humidity 68    
Maximum Humidity 82    
Minimum Humidity 44    
Precipitation  
Precipitation 0.00 in - - ()
Sea Level Pressure  
Sea Level Pressure 29.84 in    
Wind  
Wind Speed 17 mph (South)    
Max Wind Speed 23 mph    
Max Gust Speed 32 mph    
Visibility 10 miles    
Events      
Averages and records for this station are not official NWS values.
T = Trace of Precipitation, MM = Missing Value Source: NWS Daily Summary

Daily Weather History Graph

Daily Weather History Graph

Search for Another Location

Airport or City:

Trip Planner

Search our weather history database for the weather conditions in past years. The results will help you decide how hot, cold, wet, or windy it might be!

Date:

Astronomy

Nov. 20, 2013 Rise Set
Actual Time 7:15 AM CST 5:25 PM CST
Civil Twilight 6:48 AM CST 5:52 PM CST
Nautical Twilight 6:17 AM CST 6:23 PM CST
Astronomical Twilight 5:46 AM CST 6:53 PM CST
Moon 8:09 PM CST (11/20) 9:41 AM CST (11/20)
Length of Visible Light 11h 04m
Length of Day
10h 09m
Waning Gibbous, 91% of the Moon is Illuminated
Nov 20
Waning Gibbous
Nov 25
Last Quarter
Dec 2
New
Dec 9
First Quarter
Dec 17
Full

Hourly Weather History & Observations

Time (CST) Temp. Dew Point Humidity Pressure Visibility Wind Dir Wind Speed Gust Speed Precip Events Conditions
12:15 AM 53.6 °F 32.0 °F 44% 29.89 in 10.0 mi South 19.6 mph 32.2 mph N/A   Clear
12:35 AM 53.6 °F 33.8 °F 47% 29.89 in 10.0 mi South 21.9 mph 29.9 mph N/A   Clear
12:55 AM 53.6 °F 33.8 °F 47% 29.88 in 10.0 mi South 20.7 mph 28.8 mph N/A   Clear
1:15 AM 51.8 °F 33.8 °F 50% 29.88 in 10.0 mi South 20.7 mph 28.8 mph N/A   Clear
1:35 AM 51.8 °F 33.8 °F 50% 29.87 in 10.0 mi South 21.9 mph 27.6 mph N/A   Clear
1:55 AM 51.8 °F 33.8 °F 50% 29.88 in 10.0 mi South 20.7 mph 28.8 mph N/A   Mostly Cloudy
2:15 AM 51.8 °F 35.6 °F 54% 29.87 in 10.0 mi South 20.7 mph 29.9 mph N/A   Scattered Clouds
2:35 AM 51.8 °F 35.6 °F 54% 29.87 in 10.0 mi South 23.0 mph 29.9 mph N/A   Clear
2:55 AM 51.8 °F 35.6 °F 54% 29.86 in 10.0 mi South 18.4 mph 26.5 mph N/A   Clear
3:15 AM 51.8 °F 35.6 °F 54% 29.85 in 10.0 mi South 19.6 mph 26.5 mph N/A   Clear
3:35 AM 51.8 °F 35.6 °F 54% 29.85 in 10.0 mi South 17.3 mph 25.3 mph N/A   Clear
3:55 AM 51.8 °F 37.4 °F 58% 29.85 in 10.0 mi South 21.9 mph 28.8 mph N/A   Mostly Cloudy
4:15 AM 51.8 °F 37.4 °F 58% 29.84 in 10.0 mi South 21.9 mph 27.6 mph N/A   Overcast
4:35 AM 51.8 °F 37.4 °F 58% 29.85 in 10.0 mi South 16.1 mph 25.3 mph N/A   Overcast
4:55 AM 51.8 °F 37.4 °F 58% 29.85 in 10.0 mi South 16.1 mph 23.0 mph N/A   Overcast
5:15 AM 53.6 °F 39.2 °F 58% 29.84 in 10.0 mi South 19.6 mph 27.6 mph N/A   Overcast
5:35 AM 53.6 °F 41.0 °F 62% 29.84 in 10.0 mi South 20.7 mph 27.6 mph N/A   Overcast
5:55 AM 53.6 °F 41.0 °F 62% 29.83 in 10.0 mi South 19.6 mph 25.3 mph N/A   Overcast
6:15 AM 53.6 °F 41.0 °F 62% 29.83 in 10.0 mi South 19.6 mph 26.5 mph N/A   Overcast
6:35 AM 51.8 °F 41.0 °F 67% 29.83 in 10.0 mi South 20.7 mph 25.3 mph N/A   Overcast
6:55 AM 51.8 °F 41.0 °F 67% 29.84 in 10.0 mi South 15.0 mph 25.3 mph N/A   Overcast
7:15 AM 51.8 °F 42.8 °F 71% 29.84 in 10.0 mi South 19.6 mph 24.2 mph N/A   Overcast
7:35 AM 51.8 °F 42.8 °F 71% 29.85 in 10.0 mi South 17.3 mph 21.9 mph N/A   Overcast
7:55 AM 51.8 °F 42.8 °F 71% 29.85 in 10.0 mi South 16.1 mph 25.3 mph N/A   Overcast
8:15 AM 51.8 °F 42.8 °F 71% 29.85 in 10.0 mi South 21.9 mph 25.3 mph N/A   Overcast
8:35 AM 53.6 °F 44.6 °F 72% 29.87 in 10.0 mi South 15.0 mph 21.9 mph N/A   Overcast
8:55 AM 53.6 °F 44.6 °F 72% 29.86 in 10.0 mi South 16.1 mph 24.2 mph N/A   Overcast
9:15 AM 55.4 °F 46.4 °F 72% 29.87 in 10.0 mi South 19.6 mph 25.3 mph N/A   Overcast
9:35 AM 55.4 °F 46.4 °F 72% 29.86 in 10.0 mi South 18.4 mph 24.2 mph N/A   Mostly Cloudy
9:55 AM 59.0 °F 48.2 °F 67% 29.86 in 10.0 mi South 19.6 mph 27.6 mph N/A   Scattered Clouds
10:15 AM 59.0 °F 48.2 °F 67% 29.85 in 10.0 mi South 18.4 mph 28.8 mph N/A   Clear
10:35 AM 59.0 °F 50.0 °F 72% 29.84 in 10.0 mi South 18.4 mph 31.1 mph N/A   Unknown
10:55 AM 60.8 °F 50.0 °F 68% 29.84 in 10.0 mi South 19.6 mph 29.9 mph N/A   Clear
11:15 AM 60.8 °F 50.0 °F 68% 29.84 in 10.0 mi SSW 23.0 mph 27.6 mph N/A   Clear
11:35 AM 62.6 °F 51.8 °F 68% 29.83 in 10.0 mi South 19.6 mph 25.3 mph N/A   Clear
11:55 AM 62.6 °F 51.8 °F 68% 29.83 in 10.0 mi South 20.7 mph 26.5 mph N/A   Clear
12:15 PM 64.4 °F 51.8 °F 64% 29.81 in 10.0 mi South 18.4 mph 25.3 mph N/A   Scattered Clouds
12:35 PM 62.6 °F 51.8 °F 68% 29.80 in 10.0 mi South 17.3 mph 25.3 mph N/A   Scattered Clouds
12:55 PM 62.6 °F 51.8 °F 68% 29.80 in 10.0 mi South 19.6 mph 25.3 mph N/A   Mostly Cloudy
1:15 PM 62.6 °F 51.8 °F 68% 29.80 in 10.0 mi South 19.6 mph 26.5 mph N/A   Mostly Cloudy
1:35 PM 62.6 °F 51.8 °F 68% 29.79 in 10.0 mi South 13.8 mph 24.2 mph N/A   Overcast
1:55 PM 62.6 °F 53.6 °F 72% 29.79 in 10.0 mi South 12.7 mph 17.3 mph N/A   Overcast
2:15 PM 62.6 °F 53.6 °F 72% 29.79 in 10.0 mi South 15.0 mph - N/A   Scattered Clouds
2:35 PM 62.6 °F 53.6 °F 72% 29.79 in 10.0 mi South 17.3 mph 20.7 mph N/A   Scattered Clouds
2:55 PM 62.6 °F 53.6 °F 72% 29.80 in 10.0 mi South 11.5 mph 21.9 mph N/A   Clear
3:15 PM 62.6 °F 53.6 °F 72% 29.78 in 10.0 mi South 13.8 mph - N/A   Clear
3:35 PM 62.6 °F 51.8 °F 68% 29.79 in 10.0 mi South 13.8 mph 17.3 mph N/A   Clear
3:55 PM 60.8 °F 51.8 °F 72% 29.80 in 10.0 mi South 12.7 mph 16.1 mph N/A   Clear
4:15 PM 60.8 °F 51.8 °F 72% 29.80 in 10.0 mi SSE 9.2 mph - N/A   Clear
4:35 PM 60.8 °F 51.8 °F 72% 29.81 in 10.0 mi SSE 12.7 mph 18.4 mph N/A   Clear
4:55 PM 60.8 °F 51.8 °F 72% 29.81 in 10.0 mi SE 9.2 mph - N/A   Clear
5:15 PM 59.0 °F 50.0 °F 72% 29.82 in 10.0 mi SSE 9.2 mph - N/A   Clear
5:35 PM 59.0 °F 50.0 °F 72% 29.83 in 10.0 mi SSE 9.2 mph - N/A   Clear
5:55 PM 59.0 °F 50.0 °F 72% 29.83 in 10.0 mi SE 9.2 mph - N/A   Clear
6:15 PM 57.2 °F 50.0 °F 77% 29.83 in 10.0 mi SE 9.2 mph - N/A   Clear
6:35 PM 57.2 °F 50.0 °F 77% 29.84 in 10.0 mi SE 8.1 mph - N/A   Clear
6:55 PM 57.2 °F 50.0 °F 77% 29.84 in 10.0 mi SE 9.2 mph - N/A   Clear
7:15 PM 57.2 °F 50.0 °F 77% 29.85 in 10.0 mi SE 9.2 mph - N/A   Scattered Clouds
7:35 PM 55.4 °F 48.2 °F 77% 29.84 in 10.0 mi SE 8.1 mph - N/A   Scattered Clouds
7:55 PM 55.4 °F 48.2 °F 77% 29.84 in 10.0 mi SE 11.5 mph - N/A   Clear
8:15 PM 55.4 °F 46.4 °F 72% 29.86 in 10.0 mi SSE 8.1 mph - N/A   Clear
8:35 PM 55.4 °F 48.2 °F 77% 29.86 in 10.0 mi SSE 9.2 mph - N/A   Clear
8:55 PM 55.4 °F 48.2 °F 77% 29.87 in 10.0 mi SSE 9.2 mph - N/A   Clear
9:15 PM 55.4 °F 50.0 °F 82% 29.88 in 10.0 mi SSE 5.8 mph - N/A   Clear
9:35 PM 55.4 °F 50.0 °F 82% 29.87 in 10.0 mi SE 6.9 mph - N/A   Clear
9:55 PM 55.4 °F 50.0 °F 82% 29.87 in 10.0 mi SE 10.4 mph - N/A   Clear
10:15 PM 55.4 °F 50.0 °F 82% 29.87 in 10.0 mi SSE 9.2 mph - N/A   Clear
10:35 PM 57.2 °F 51.8 °F 82% 29.87 in 10.0 mi SSE 11.5 mph 16.1 mph N/A   Clear
10:55 PM 57.2 °F 51.8 °F 82% 29.87 in 10.0 mi SSE 10.4 mph - N/A   Clear
11:15 PM 57.2 °F 51.8 °F 82% 29.87 in 10.0 mi SSE 9.2 mph - N/A   Clear
11:35 PM 57.2 °F 51.8 °F 82% 29.88 in 10.0 mi SSE 9.2 mph 16.1 mph N/A   Clear
11:55 PM 57.2 °F 51.8 °F 82% 29.88 in 10.0 mi SSE 10.4 mph - N/A   Clear